Stations météo

réclame
Mon MeteoGroup
D15-FA-1, Pays-Bas (6201): Température de l'air & dewpoint: 08.08.2018 17:00:00 - 14.08.2018 17:00:00 (CEST)D15-FA-1, Pays-Bas (6201): Vitesse du vent & gusts: 08.08.2018 17:00:00 - 14.08.2018 17:00:00 (CEST)D15-FA-1, Pays-Bas (6201): Direction du vent: 08.08.2018 17:00:00 - 14.08.2018 17:00:00 (CEST)D15-FA-1, Pays-Bas (6201): reduced air pressure: 08.08.2018 17:00:00 - 14.08.2018 17:00:00 (CEST)D15-FA-1, Pays-Bas (6201): visibility: 08.08.2018 17:00:00 - 14.08.2018 17:00:00 (CEST)
Date & Time tt [°C] td [°C] ff [km/h] ff [knt] fx [km/h] fx [knt] dd ppp [hPa] vv [km]
14.08.2018 17:00:00 17,0 15,0 24 13 - - WSW 1014,1 10
14.08.2018 16:00:00 17,3 15,0 22 12 25 14 WSW 1013,9 10
14.08.2018 15:00:00 17,3 15,0 26 14 32 18 W 1013,8 10
14.08.2018 14:00:00 17,4 14,7 28 15 29 16 W 1013,6 10
14.08.2018 13:00:00 17,9 13,2 22 12 25 14 W 1013,1 10
14.08.2018 12:00:00 18,2 13,8 24 13 25 14 WNW 1012,6 10
14.08.2018 11:00:00 18,0 13,6 24 13 29 16 NW 1012,3 10
14.08.2018 10:00:00 17,8 13,2 28 15 32 18 NW 1011,7 10
14.08.2018 09:00:00 17,7 13,2 35 19 40 21 NNW 1011,1 10
14.08.2018 08:00:00 17,6 13,1 41 22 40 21 NW 1010,3 10
14.08.2018 07:00:00 17,5 13,4 42 23 43 23 NW 1009,8 10
14.08.2018 06:00:00 17,5 13,5 44 24 43 23 NNW 1009,1 10
14.08.2018 05:00:00 17,6 13,8 44 24 47 25 NNW 1008,7 10
14.08.2018 04:00:00 17,5 13,9 46 25 47 25 NNW 1008,1 10
14.08.2018 03:00:00 17,6 14,0 44 24 47 25 NW 1007,7 10
14.08.2018 02:00:00 17,8 14,7 41 22 43 23 NW 1007,2 10
14.08.2018 01:00:00 17,7 15,5 42 23 40 21 NNW 1006,8 10
14.08.2018 00:00:00 17,8 15,8 41 22 43 23 NNW 1006,3 10
13.08.2018 23:00:00 17,6 16,0 44 24 43 23 NNW 1005,9 10
13.08.2018 22:00:00 17,5 16,5 42 23 47 25 N 1005,4 9
13.08.2018 21:00:00 17,7 16,6 34 18 32 18 NW 1004,8 10
13.08.2018 20:00:00 18,0 16,5 24 13 25 14 WNW 1004,5 10
13.08.2018 19:00:00 18,0 16,5 26 14 29 16 WNW 1004,3 10
13.08.2018 18:00:00 17,7 16,9 18 10 22 12 W 1004,4 10
13.08.2018 17:00:00 17,8 16,6 21 11 25 14 NW 1004,5 10
13.08.2018 16:00:00 17,3 16,9 21 11 22 12 W 1004,4 9
13.08.2018 15:00:00 16,2 15,7 13 7 18 10 - 1004,6 1,6
13.08.2018 14:00:00 16,4 15,7 11 6 18 10 WNW 1004,8 6
13.08.2018 13:00:00 16,6 16,2 15 8 14 8 W 1004,8 4,7
13.08.2018 12:00:00 16,6 15,8 13 7 14 8 W 1004,8 6
13.08.2018 11:00:00 16,8 15,8 9 5 25 14 - 1004,8 10
13.08.2018 10:00:00 16,7 15,6 24 13 29 16 SW 1004,8 10
13.08.2018 09:00:00 17,1 15,8 26 14 32 18 SW 1004,9 10
13.08.2018 08:00:00 17,8 16,7 5 3 7 4 SSW 1004,8 10
13.08.2018 07:00:00 17,8 17,0 8 4 11 6 SSE 1004,8 10
13.08.2018 06:00:00 17,7 16,8 11 6 14 8 SE 1004,9 10
13.08.2018 05:00:00 17,6 16,4 15 8 18 10 SE 1005,4 10
13.08.2018 04:00:00 17,5 16,2 16 9 18 10 SE 1005,8 10
13.08.2018 03:00:00 17,7 15,7 13 7 14 8 SSE 1006,1 10
13.08.2018 02:00:00 17,6 15,5 15 8 14 8 S 1006,6 10
13.08.2018 01:00:00 17,6 15,9 16 9 29 16 S 1006,9 10
13.08.2018 00:00:00 17,8 14,7 26 14 29 16 SW 1007,1 10
12.08.2018 23:00:00 17,4 14,8 26 14 29 16 SW 1007,5 10
12.08.2018 22:00:00 17,0 16,0 26 14 29 16 WSW 1007,8 9
12.08.2018 21:00:00 17,0 16,1 29 16 32 18 WSW 1007,7 10
12.08.2018 20:00:00 17,3 15,7 29 16 32 18 WSW 1007,9 10
12.08.2018 19:00:00 17,0 15,7 34 18 32 18 SW 1008,2 10
12.08.2018 18:00:00 17,1 15,1 34 18 36 19 SW 1008,5 10
12.08.2018 17:00:00 18,3 15,1 31 17 32 18 SW 1008,7 10
12.08.2018 16:00:00 18,3 15,4 29 16 40 21 SW 1009,0 10
12.08.2018 15:00:00 18,0 15,9 31 17 40 21 SW 1009,3 10
12.08.2018 14:00:00 17,5 14,9 34 18 36 19 SW 1009,3 10
12.08.2018 13:00:00 16,9 15,1 35 19 40 21 WSW 1009,4 10
12.08.2018 12:00:00 18,3 15,4 29 16 47 25 SW 1009,7 10
12.08.2018 11:00:00 17,6 16,4 41 22 47 25 SW 1010,2 9
12.08.2018 10:00:00 17,2 15,8 48 26 58 31 SW 1010,4 10
12.08.2018 09:00:00 17,1 15,8 50 27 58 31 SW 1010,6 10
12.08.2018 08:00:00 16,0 16,0 35 19 50 27 SW 1011,2 4,2
12.08.2018 07:00:00 15,8 15,7 39 21 47 25 SW 1011,9 3,5
12.08.2018 06:00:00 16,1 15,4 35 19 43 23 SSW 1012,5 3,5
12.08.2018 05:00:00 16,7 15,3 31 17 43 23 S 1013,3 10
12.08.2018 04:00:00 17,5 14,5 35 19 36 19 S 1014,1 10
12.08.2018 03:00:00 17,4 14,0 37 20 40 21 S 1015,2 10
12.08.2018 02:00:00 17,4 13,0 34 18 36 19 S 1015,9 10
12.08.2018 01:00:00 17,4 12,5 35 19 36 19 S 1016,6 10
12.08.2018 00:00:00 17,2 11,7 31 17 32 18 S 1017,3 10
11.08.2018 23:00:00 16,7 10,8 28 15 29 16 S 1018,1 10
11.08.2018 22:00:00 16,1 9,9 26 14 29 16 SSW 1019,0 10
11.08.2018 21:00:00 16,1 9,6 22 12 29 16 SW 1019,1 10
11.08.2018 20:00:00 16,0 8,3 18 10 25 14 - 1019,4 10
11.08.2018 19:00:00 15,8 10,0 16 9 25 14 W 1019,9 10
11.08.2018 18:00:00 15,5 11,3 22 12 25 14 - 1020,0 10
11.08.2018 17:00:00 15,7 11,5 21 11 29 16 W 1020,3 10
11.08.2018 16:00:00 15,8 12,2 29 16 32 18 W 1020,4 10
11.08.2018 15:00:00 15,9 11,8 29 16 32 18 W 1020,2 10
11.08.2018 14:00:00 16,3 11,5 31 17 36 19 W 1020,0 10
11.08.2018 13:00:00 16,2 12,2 39 21 40 21 W 1019,8 10
11.08.2018 12:00:00 16,8 10,7 24 13 32 18 WNW 1019,6 10
11.08.2018 11:00:00 17,2 10,1 26 14 32 18 WNW 1019,3 10
11.08.2018 10:00:00 17,2 9,8 28 15 32 18 NW 1018,9 10
11.08.2018 09:00:00 17,0 9,9 34 18 36 19 WNW 1018,2 10
11.08.2018 08:00:00 16,5 9,9 35 19 40 21 NW 1017,7 10
11.08.2018 07:00:00 16,1 9,5 35 19 40 21 WNW 1017,1 10
11.08.2018 06:00:00 16,0 10,4 39 21 47 25 NW 1016,6 10
11.08.2018 05:00:00 15,2 10,3 18 10 40 21 NW 1016,5 10
11.08.2018 04:00:00 14,5 10,5 5 3 14 8 - 1016,6 10
11.08.2018 03:00:00 14,2 9,7 5 3 14 8 W 1016,3 10
11.08.2018 02:00:00 13,4 10,1 18 10 36 19 N 1016,3 10
11.08.2018 01:00:00 13,0 10,5 35 19 43 23 N 1015,9 10
11.08.2018 00:00:00 13,4 9,4 35 19 40 21 NNE 1015,5 3,7
10.08.2018 23:00:00 13,7 9,1 29 16 43 23 WNW 1015,2 10
10.08.2018 22:00:00 15,2 10,2 21 11 29 16 W 1014,8 10
10.08.2018 21:00:00 14,7 10,7 18 10 32 18 - 1014,8 10
10.08.2018 20:00:00 13,4 11,6 34 18 43 23 SSE 1014,7 10
10.08.2018 19:00:00 14,3 10,9 18 10 40 21 S 1015,2 10
10.08.2018 18:00:00 16,7 9,5 26 14 32 18 SW 1015,1 10
10.08.2018 17:00:00 16,5 9,7 28 15 32 18 SW 1015,4 10
10.08.2018 16:00:00 16,3 11,0 29 16 36 19 SW 1015,6 10
10.08.2018 15:00:00 16,1 10,9 31 17 32 18 SW 1015,9 10
10.08.2018 14:00:00 16,0 10,0 29 16 32 18 SW 1015,6 10
10.08.2018 13:00:00 16,1 8,9 29 16 32 18 SW 1015,3 10
10.08.2018 12:00:00 16,2 9,0 26 14 25 14 WSW 1015,2 10
10.08.2018 11:00:00 16,3 9,7 28 15 32 18 WSW 1015,0 10
10.08.2018 10:00:00 16,2 7,9 29 16 32 18 WSW 1014,5 10
10.08.2018 09:00:00 16,1 10,1 35 19 40 21 W 1014,0 10
10.08.2018 08:00:00 15,9 11,1 41 22 43 23 W 1013,6 10
10.08.2018 07:00:00 16,1 11,8 39 21 40 21 W 1013,1 10
10.08.2018 06:00:00 16,7 7,4 41 22 43 23 W 1012,5 10
10.08.2018 05:00:00 16,9 9,4 39 21 40 21 W 1012,4 10
10.08.2018 04:00:00 16,2 11,0 37 20 50 27 W 1012,3 10
10.08.2018 03:00:00 14,7 10,5 24 13 29 16 W 1012,4 10
10.08.2018 02:00:00 15,0 9,6 31 17 47 25 NW 1012,3 9
10.08.2018 01:00:00 15,1 9,0 50 27 54 29 NW 1011,7 6
10.08.2018 00:00:00 15,4 11,0 50 27 58 31 NW 1010,3 4,8
09.08.2018 23:00:00 15,3 11,4 54 29 50 27 NNW 1010,2 4,5
09.08.2018 22:00:00 15,6 10,5 52 28 54 29 NNW 1010,3 9
09.08.2018 21:00:00 15,6 12,7 55 30 54 29 N 1009,7 4,8
09.08.2018 20:00:00 15,5 12,8 55 30 58 31 N 1009,6 4,5
09.08.2018 19:00:00 15,7 12,8 50 27 50 27 N 1009,8 4,8
09.08.2018 18:00:00 16,6 12,9 48 26 47 25 N 1009,8 10
09.08.2018 17:00:00 17,1 13,6 42 23 43 23 N 1010,6 10
09.08.2018 16:00:00 17,4 13,7 31 17 36 19 N 1011,4 10
09.08.2018 15:00:00 17,6 13,1 26 14 29 16 NNE 1012,2 10
09.08.2018 14:00:00 17,2 13,7 28 15 29 16 NNE 1012,1 10
09.08.2018 13:00:00 16,9 13,1 31 17 32 18 NNE 1012,3 10
09.08.2018 12:00:00 17,2 12,2 24 13 25 14 N 1013,1 10
09.08.2018 11:00:00 17,1 12,3 28 15 32 18 N 1013,2 10
09.08.2018 10:00:00 17,8 13,4 26 14 25 14 N 1013,2 10
09.08.2018 09:00:00 17,9 13,8 24 13 25 14 N 1012,9 10
09.08.2018 08:00:00 18,3 13,5 16 9 18 10 NNW 1012,6 10
09.08.2018 07:00:00 18,5 13,4 11 6 11 6 N 1012,5 10
09.08.2018 06:00:00 18,4 14,1 9 5 11 6 N 1012,4 10
09.08.2018 05:00:00 18,5 13,9 11 6 14 8 NW 1012,6 10
09.08.2018 04:00:00 18,6 14,3 16 9 25 14 W 1012,4 10
09.08.2018 03:00:00 18,7 16,7 28 15 32 18 SW 1012,4 10
09.08.2018 02:00:00 18,6 16,6 29 16 32 18 SSW 1012,5 10
09.08.2018 01:00:00 18,5 16,1 28 15 32 18 S 1012,6 10
09.08.2018 00:00:00 18,3 15,1 29 16 29 16 S 1012,3 10
08.08.2018 23:00:00 18,2 14,6 34 18 36 19 S 1012,5 10
08.08.2018 22:00:00 18,0 13,5 34 18 32 18 S 1012,2 10
08.08.2018 21:00:00 18,0 12,0 29 16 29 16 S 1011,7 10
08.08.2018 20:00:00 17,9 11,7 21 11 25 14 S 1011,6 10
08.08.2018 19:00:00 17,7 12,0 26 14 32 18 SW 1011,3 10
08.08.2018 18:00:00 17,6 12,4 22 12 29 16 - 1011,4 10
08.08.2018 17:00:00 17,5 10,8 28 15 36 19 W 1010,9 10

tt = Température de l'air
td = dewpoint
ff = Vitesse du vent
fx = gusts
dd = Direction du vent
ppp = reduced air pressure
vv = visibility

stations d'obs. à proximité